timestamp,surface_pressure_avg,surface_temp_avg,battery_voltage,lat,long
2022-01-05 00:09:01+00:00,341.0062,3.3,12.49,47.84626,-54.09684
2022-01-05 00:19:00+00:00,347.418,3.3,12.49,47.84626,-54.09684
2022-01-05 00:29:00+00:00,343.9947,3.3,12.49,47.84626,-54.09684
2022-01-05 00:39:00+00:00,339.6563,3.3,12.49,47.84626,-54.09684
2022-01-05 00:49:00+00:00,343.3247,3.3,12.49,47.84626,-54.09684
2022-01-05 00:59:00+00:00,351.2363,3.27,12.49,47.84626,-54.09684
2022-01-05 01:09:00+00:00,347.24800000000016,3.27,12.49,47.84626,-54.09684
2022-01-05 01:19:00+00:00,348.3663,3.3,12.41,47.84626,-54.09684
2022-01-05 01:29:00+00:00,347.8845,3.3,12.41,47.84626,-54.09684
2022-01-05 01:39:00+00:00,341.5347,3.3,12.41,47.84626,-54.09684
2022-01-05 01:49:00+00:00,343.5496,3.39,12.41,47.84626,-54.09684
2022-01-05 01:59:00+00:00,341.8663,3.3,12.41,47.84626,-54.09684
2022-01-05 02:09:00+00:00,342.3412,3.3,12.41,47.84626,-54.09684
2022-01-05 02:19:00+00:00,347.2213,3.39,12.41,47.84626,-54.09684
2022-01-05 02:29:00+00:00,349.4963,3.5,12.41,47.84626,-54.09684
2022-01-05 02:39:00+00:00,348.0596,3.69,12.41,47.84626,-54.09684
2022-01-05 02:49:00+00:00,342.24300000000005,3.7,12.41,47.84626,-54.09684
2022-01-05 02:59:00+00:00,342.1296,3.7,12.41,47.84626,-54.09684
2022-01-05 03:09:00+00:00,344.4647,3.7,12.41,47.84626,-54.09684
2022-01-05 07:19:00+00:00,199.1248,3.5,12.33,47.84626,-54.09684
2022-01-05 07:29:00+00:00,181.9048,3.49,12.33,47.84626,-54.09684
2022-01-05 07:39:00+00:00,186.6898,3.5,12.33,47.84626,-54.09684
2022-01-05 07:49:00+00:00,185.4448,3.5,12.33,47.84626,-54.09684
2022-01-05 07:59:00+00:00,170.3865,3.4,12.33,47.84626,-54.09684
2022-01-05 08:09:00+00:00,176.2465,3.4,12.33,47.84626,-54.09684
2022-01-05 08:19:00+00:00,184.3165,3.42,12.33,47.84626,-54.09684
2022-01-05 08:29:00+00:00,178.6681,3.56,12.33,47.84626,-54.09684
2022-01-05 08:39:00+00:00,183.7648,3.69,12.33,47.84626,-54.09684
2022-01-05 08:49:00+00:00,193.7415,3.8,12.33,47.84626,-54.09684
2022-01-05 08:59:00+00:00,196.6898,3.88,12.33,47.84626,-54.09684
2022-01-05 09:09:00+00:00,202.2381,3.9,12.33,47.84626,-54.09684
2022-01-05 09:19:00+00:00,210.4132,3.88,12.33,47.84626,-54.09684
2022-01-05 09:29:00+00:00,216.7348,3.85,12.33,47.84626,-54.09684
2022-01-05 09:39:00+00:00,220.8298,3.89,12.33,47.84626,-54.09684
2022-01-05 09:49:00+00:00,227.7798,3.9,12.33,47.84626,-54.09684
2022-01-05 09:59:00+00:00,238.6231,3.9,12.33,47.84626,-54.09684
2022-01-05 10:09:00+00:00,244.588,3.8,12.33,47.84626,-54.09684
2022-01-05 10:19:00+00:00,245.6848,3.7,12.33,47.84626,-54.09684
2022-01-05 10:29:00+00:00,265.7114,3.7,12.33,47.84626,-54.09684
2022-01-05 10:39:00+00:00,284.9597,3.6,12.33,47.84626,-54.09684
2022-01-05 10:49:00+00:00,292.808,3.2,12.33,47.84626,-54.09684
2022-01-05 10:59:00+00:00,297.6497,3.2,12.33,47.84626,-54.09684
2022-01-05 11:09:00+00:00,313.3447,3.2,12.33,47.84626,-54.09684
2022-01-05 11:19:01+00:00,317.3646,3.1,12.33,47.84626,-54.09684
2022-01-05 11:29:01+00:00,325.388,3.42,12.33,47.84626,-54.09684
2022-01-05 11:39:01+00:00,343.5096,3.5,12.33,47.84626,-54.09684
2022-01-05 11:49:01+00:00,351.7612,3.2,12.33,47.84626,-54.09684
2022-01-05 11:59:01+00:00,357.963,3.1,12.33,47.84626,-54.09684
2022-01-05 12:09:01+00:00,362.7313,3.1,12.33,47.84626,-54.09684
2022-01-05 12:19:00+00:00,366.8146,3.1,12.41,47.84626,-54.09684
2022-01-05 12:29:00+00:00,370.3912,3.1,12.41,47.84626,-54.09684
2022-01-05 12:39:00+00:00,376.3779,3.1,12.41,47.84626,-54.09684
2022-01-05 12:49:00+00:00,382.2796,3.17,12.41,47.84626,-54.09684
2022-01-05 12:59:00+00:00,373.6096,3.2,12.41,47.84626,-54.09684
2022-01-05 13:09:00+00:00,380.4945,3.29,12.41,47.84626,-54.09684
2022-01-05 13:19:00+00:00,391.4479,3.3,13.21,47.84626,-54.09684
2022-01-05 13:29:00+00:00,386.4512,3.3,13.21,47.84626,-54.09684
2022-01-05 13:39:00+00:00,389.3113,3.38,13.21,47.84626,-54.09684
2022-01-05 13:49:00+00:00,400.9745,3.4,13.21,47.84626,-54.09684
2022-01-05 13:59:00+00:00,409.043,3.4,13.21,47.84626,-54.09684
2022-01-05 14:09:00+00:00,403.2946,3.43,13.21,47.84626,-54.09684
2022-01-05 14:19:00+00:00,401.2062,3.52,13.53,47.84626,-54.09684
2022-01-05 14:29:00+00:00,408.68800000000016,3.6,13.53,47.84626,-54.09684
2022-01-05 14:39:00+00:00,394.5013,3.6,13.53,47.84626,-54.09684
2022-01-05 14:49:00+00:00,384.6395,3.6,13.53,47.84626,-54.09684
2022-01-05 14:59:00+00:00,399.7096,3.6,13.53,47.84626,-54.09684
2022-01-05 15:09:00+00:00,396.7229,3.5,13.53,47.84626,-54.09684
2022-01-05 15:19:00+00:00,376.6647,3.5,14.16,47.84626,-54.09684
2022-01-05 15:29:00+00:00,367.8563,3.54,14.16,47.84626,-54.09684
2022-01-05 15:39:00+00:00,368.0679,3.55,14.16,47.84626,-54.09684
2022-01-05 15:49:00+00:00,361.0129,3.6,14.16,47.84626,-54.09684
2022-01-05 15:59:00+00:00,341.1529,3.61,14.16,47.84626,-54.09684
2022-01-05 16:09:00+00:00,328.8396,3.79,14.16,47.84626,-54.09684
2022-01-05 16:19:00+00:00,315.3696,3.92,13.44,47.84626,-54.09684
2022-01-05 16:29:00+00:00,295.5714,3.9,13.44,47.84626,-54.09684
2022-01-05 16:39:00+00:00,278.4998,3.9,13.44,47.84626,-54.09684
2022-01-05 16:49:00+00:00,271.1381,3.9,13.44,47.84626,-54.09684
2022-01-05 16:59:00+00:00,270.7131,3.9,13.44,47.84626,-54.09684
2022-01-05 17:09:00+00:00,261.6964,3.9,13.44,47.84626,-54.09684
2022-01-05 17:19:00+00:00,245.5264,3.8,13.29,47.84626,-54.09684
2022-01-05 17:29:00+00:00,238.5398,3.8,13.29,47.84626,-54.09684
2022-01-05 17:39:00+00:00,234.9898,3.8,13.29,47.84626,-54.09684
2022-01-05 17:49:00+00:00,224.7664,3.8,13.29,47.84626,-54.09684
2022-01-05 17:59:00+00:00,214.3164,3.8,13.29,47.84626,-54.09684
2022-01-05 18:09:00+00:00,213.9314,3.8,13.29,47.84626,-54.09684
2022-01-05 18:19:00+00:00,213.1064,3.8,13.76,47.84626,-54.09684
2022-01-05 18:29:00+00:00,201.5548,3.8,13.76,47.84626,-54.09684
2022-01-05 18:39:00+00:00,198.3248,3.8,13.76,47.84626,-54.09684
2022-01-05 18:49:00+00:00,203.2365,3.79,13.76,47.84626,-54.09684
2022-01-05 18:59:00+00:00,198.2698,3.78,13.76,47.84626,-54.09684
2022-01-05 19:09:00+00:00,191.2415,3.7,13.76,47.84626,-54.09684
2022-01-05 19:19:01+00:00,190.0931,3.7,13.37,47.84626,-54.09684
2022-01-05 19:29:01+00:00,188.8731,3.7,13.37,47.84626,-54.09684
2022-01-05 19:39:01+00:00,181.1832,3.69,13.37,47.84626,-54.09684
2022-01-05 19:49:01+00:00,175.0348,3.6,13.37,47.84626,-54.09684
2022-01-05 19:59:01+00:00,178.6398,3.6,13.37,47.84626,-54.09684
2022-01-05 20:09:01+00:00,178.4181,3.6,13.37,47.84626,-54.09684
2022-01-05 20:19:01+00:00,171.2831,3.6,12.97,47.84626,-54.09684
2022-01-05 20:29:01+00:00,174.9482,3.6,12.97,47.84626,-54.09684
2022-01-05 20:39:01+00:00,184.2215,3.6,12.97,47.84626,-54.09684
2022-01-05 20:49:01+00:00,182.8565,3.6,12.97,47.84626,-54.09684
2022-01-05 20:59:01+00:00,181.9215,3.6,12.97,47.84626,-54.09684
2022-01-05 21:09:01+00:00,190.2165,3.6,12.97,47.84626,-54.09684
2022-01-05 21:19:01+00:00,193.6198,3.5,12.73,47.84626,-54.09684
2022-01-05 21:29:01+00:00,193.3048,3.5,12.73,47.84626,-54.09684
2022-01-05 21:39:01+00:00,200.2131,3.5,12.73,47.84626,-54.09684
2022-01-05 21:49:01+00:00,208.6548,3.5,12.73,47.84626,-54.09684
2022-01-05 21:59:01+00:00,215.5498,3.5,12.73,47.84626,-54.09684
2022-01-05 22:09:01+00:00,220.1798,3.47,12.73,47.84626,-54.09684
2022-01-05 22:19:01+00:00,226.8098,3.46,12.73,47.84626,-54.09684
2022-01-05 22:29:01+00:00,237.6864,3.47,12.73,47.84626,-54.09684
2022-01-05 22:39:01+00:00,245.4448,3.44,12.73,47.84626,-54.09684
2022-01-05 22:49:01+00:00,244.1914,3.41,12.73,47.84626,-54.09684
2022-01-05 22:59:01+00:00,245.8598,3.43,12.73,47.84626,-54.09684
2022-01-05 23:09:01+00:00,252.6263,3.42,12.73,47.84626,-54.09684
2022-01-05 23:19:00+00:00,258.0448,3.42,12.65,47.84626,-54.09684
2022-01-05 23:29:00+00:00,262.8865,3.4,12.65,47.84626,-54.09684
2022-01-05 23:39:00+00:00,272.4031,3.4,12.65,47.84626,-54.09684
2022-01-05 23:49:00+00:00,277.848,3.4,12.65,47.84626,-54.09684
2022-01-05 23:59:00+00:00,280.8181,3.47,12.65,47.84626,-54.09684
